Precipitable_Water
0.58 0.65 0.74 0.82 0.80 0.77 0.75 0.78 0.85 0.90 0.99 1.07 1.13 1.17 1.19 1.16 1.14 1.03 0.78 0.88 0.93 0.97 0.89 0.78 0.79 0.75 0.81 0.79 0.84 0.83 0.53 0.45 0.47 0.48 0.51 0.58 0.54 0.61 0.61 0.47 0.56 0.62 0.62 0.71 0.76
0.60 0.68 0.74 0.81 0.82 0.82 0.81 0.80 0.80 0.85 0.90 0.98 1.09 1.14 1.15 1.13 0.95 0.81 0.97 1.04 1.06 1.02 0.80 0.68 0.64 0.70 0.59 0.69 0.75 0.65 0.50 0.44 0.57 0.57 0.55 0.60 0.59 0.55 0.59 0.54 0.48 0.58 0.68 0.73 0.73
0.63 0.70 0.75 0.83 0.83 0.83 0.82 0.82 0.82 0.83 0.84 0.87 0.93 1.04 1.09 1.04 0.79 0.70 0.97 0.98 1.02 1.06 0.92 0.83 0.75 0.70 0.60 0.66 0.68 0.65 0.47 0.56 0.56 0.61 0.62 0.60 0.60 0.60 0.56 0.54 0.47 0.55 0.67 0.74 0.73
0.63 0.68 0.76 0.83 0.82 0.84 0.86 0.88 0.89 0.88 0.89 0.91 0.88 0.87 0.91 0.87 0.41 0.84 0.95 0.93 0.99 1.06 0.94 0.82 0.69 0.58 0.59 0.54 0.68 0.56 0.63 0.64 0.60 0.69 0.69 0.62 0.63 0.56 0.55 0.56 0.66 0.63 0.72 0.71 0.69
0.71 0.67 0.73 0.83 0.83 0.87 0.88 0.88 0.88 0.89 0.89 0.91 0.95 0.93 0.80 0.58 0.57 0.90 0.86 0.83 0.87 0.88 0.82 0.73 0.65 0.56 0.50 0.59 0.66 0.59 0.64 0.66 0.67 0.66 0.69 0.71 0.61 0.57 0.55 0.60 0.72 0.63 0.62 0.64 0.67
0.78 0.68 0.67 0.78 0.84 0.88 0.91 0.93 0.93 0.91 0.91 0.91 0.96 0.99 0.75 0.50 0.77 0.80 0.90 0.83 0.79 0.82 0.79 0.80 0.73 0.68 0.55 0.57 0.60 0.69 0.66 0.66 0.70 0.66 0.67 0.65 0.61 0.60 0.57 0.62 0.61 0.70 0.58 0.60 0.61
0.81 0.72 0.65 0.70 0.78 0.86 0.93 0.97 0.94 0.95 0.92 0.93 0.94 0.90 0.70 0.59 0.79 0.81 0.84 0.83 0.82 0.75 0.70 0.82 0.81 0.73 0.63 0.53 0.67 0.67 0.58 0.64 0.63 0.68 0.64 0.70 0.54 0.51 0.60 0.62 0.56 0.68 0.57 0.47 0.52
0.77 0.78 0.69 0.67 0.73 0.81 0.90 0.98 0.98 1.00 0.95 0.93 0.89 0.84 0.60 0.85 0.86 0.77 0.76 0.70 0.72 0.72 0.69 0.75 0.84 0.72 0.67 0.71 0.63 0.57 0.60 0.42 0.54 0.65 0.64 0.66 0.44 0.57 0.64 0.63 0.54 0.55 0.55 0.54 0.51
0.82 0.80 0.79 0.68 0.73 0.77 0.88 0.94 0.97 0.97 1.04 0.96 0.77 0.72 0.53 0.80 0.69 0.75 0.78 0.66 0.68 0.66 0.67 0.66 0.68 0.59 0.66 0.51 0.47 0.51 0.36 0.38 0.45 0.64 0.62 0.58 0.48 0.58 0.62 0.61 0.55 0.50 0.53 0.58 0.55
0.86 0.83 0.85 0.69 0.73 0.76 0.81 0.91 0.94 0.94 0.97 0.97 0.82 0.62 0.63 0.58 0.70 0.74 0.78 0.75 0.64 0.61 0.57 0.56 0.53 0.44 0.46 0.42 0.24 0.32 0.38 0.39 0.41 0.54 0.60 0.53 0.52 0.60 0.62 0.57 0.53 0.50 0.50 0.53 0.58
0.89 0.79 0.84 0.73 0.71 0.76 0.80 0.77 0.64 0.64 0.76 0.62 0.62 0.57 0.62 0.72 0.78 0.70 0.73 0.68 0.65 0.56 0.42 0.50 0.40 0.30 0.32 0.37 0.37 0.43 0.45 0.45 0.45 0.57 0.56 0.52 0.52 0.60 0.62 0.58 0.54 0.54 0.51 0.52 0.57
0.89 0.81 0.82 0.73 0.73 0.76 0.75 0.59 0.68 0.75 0.52 0.73 0.71 0.69 0.72 0.79 0.62 0.66 0.75 0.58 0.54 0.42 0.46 0.45 0.33 0.33 0.42 0.43 0.41 0.39 0.44 0.44 0.54 0.59 0.57 0.53 0.50 0.58 0.60 0.55 0.53 0.55 0.55 0.54 0.57
0.89 0.84 0.80 0.75 0.78 0.73 0.63 0.65 0.88 0.83 0.53 0.57 0.67 0.65 0.72 0.75 0.63 0.62 0.69 0.61 0.50 0.43 0.42 0.36 0.32 0.47 0.42 0.40 0.39 0.37 0.39 0.44 0.51 0.57 0.63 0.54 0.47 0.53 0.55 0.53 0.56 0.57 0.61 0.58 0.57
0.91 0.89 0.81 0.80 0.69 0.67 0.60 0.74 0.86 0.88 0.39 0.41 0.52 0.66 0.74 0.74 0.58 0.73 0.75 0.63 0.53 0.41 0.42 0.40 0.43 0.40 0.40 0.35 0.38 0.30 0.40 0.50 0.54 0.55 0.41 0.56 0.32 0.43 0.45 0.47 0.53 0.54 0.57 0.55 0.57
0.95 0.94 0.87 0.81 0.77 0.69 0.73 0.87 0.89 0.79 0.20 0.45 0.55 0.82 0.74 0.61 0.62 0.61 0.77 0.67 0.48 0.43 0.44 0.35 0.38 0.35 0.34 0.36 0.41 0.32 0.46 0.52 0.58 0.59 0.56 0.48 0.40 0.38 0.49 0.44 0.47 0.49 0.55 0.56 0.59
1.02 0.98 0.93 0.85 0.84 0.88 0.86 0.82 0.74 0.37 0.20 0.42 0.59 0.56 0.54 0.58 0.58 0.64 0.60 0.69 0.61 0.48 0.46 0.40 0.50 0.44 0.37 0.44 0.47 0.48 0.43 0.56 0.62 0.58 0.40 0.53 0.45 0.37 0.43 0.43 0.49 0.49 0.51 0.55 0.59
1.05 1.02 0.96 0.95 0.75 0.98 0.83 0.64 0.35 0.24 0.42 0.46 0.49 0.54 0.50 0.47 0.48 0.51 0.47 0.44 0.38 0.32 0.30 0.40 0.40 0.45 0.50 0.44 0.47 0.49 0.43 0.35 0.38 0.39 0.36 0.48 0.44 0.41 0.45 0.50 0.48 0.47 0.51 0.57 0.60
1.04 1.05 1.02 0.94 1.02 0.98 0.76 0.43 0.24 0.29 0.40 0.58 0.53 0.51 0.42 0.45 0.43 0.46 0.44 0.35 0.40 0.36 0.31 0.27 0.23 0.37 0.47 0.44 0.37 0.45 0.49 0.42 0.28 0.32 0.33 0.44 0.37 0.42 0.52 0.50 0.49 0.49 0.51 0.54 0.55
1.04 0.99 0.92 0.93 1.03 0.94 0.60 0.30 0.26 0.35 0.55 0.51 0.51 0.42 0.36 0.40 0.43 0.42 0.39 0.37 0.36 0.39 0.31 0.30 0.31 0.51 0.48 0.49 0.58 0.45 0.44 0.58 0.49 0.42 0.34 0.37 0.43 0.46 0.49 0.48 0.49 0.49 0.51 0.52 0.53
0.88 0.84 0.81 1.04 1.03 0.81 0.51 0.34 0.34 0.54 0.60 0.56 0.41 0.41 0.27 0.33 0.35 0.36 0.36 0.39 0.38 0.44 0.49 0.40 0.34 0.52 0.57 0.64 0.62 0.53 0.63 0.50 0.50 0.30 0.30 0.36 0.35 0.32 0.39 0.40 0.43 0.45 0.49 0.52 0.55
0.84 0.65 0.85 1.06 0.95 0.63 0.40 0.35 0.44 0.64 0.64 0.53 0.44 0.35 0.31 0.32 0.32 0.30 0.28 0.34 0.44 0.43 0.53 0.48 0.40 0.44 0.53 0.47 0.48 0.55 0.54 0.58 0.53 0.48 0.33 0.30 0.35 0.44 0.40 0.41 0.40 0.44 0.49 0.54 0.55
0.76 0.52 0.88 0.99 0.56 0.53 0.43 0.44 0.64 0.62 0.67 0.60 0.50 0.39 0.30 0.36 0.31 0.33 0.32 0.44 0.51 0.50 0.46 0.52 0.46 0.37 0.43 0.57 0.64 0.65 0.59 0.56 0.41 0.39 0.42 0.37 0.33 0.46 0.46 0.44 0.45 0.45 0.51 0.56 0.59
0.63 0.63 0.89 0.84 0.43 0.45 0.49 0.53 0.62 0.60 0.62 0.57 0.42 0.35 0.33 0.34 0.30 0.33 0.40 0.50 0.53 0.53 0.47 0.57 0.46 0.37 0.42 0.55 0.67 0.60 0.64 0.59 0.54 0.52 0.40 0.33 0.34 0.49 0.48 0.45 0.46 0.44 0.49 0.56 0.60
0.64 0.49 0.63 0.69 0.64 0.53 0.47 0.50 0.55 0.68 0.64 0.60 0.42 0.37 0.33 0.31 0.35 0.41 0.39 0.50 0.53 0.53 0.60 0.70 0.53 0.48 0.41 0.45 0.51 0.51 0.55 0.55 0.53 0.42 0.41 0.39 0.38 0.44 0.47 0.45 0.46 0.46 0.51 0.56 0.60
0.65 0.53 0.61 0.46 0.51 0.53 0.56 0.56 0.56 0.54 0.68 0.60 0.40 0.35 0.31 0.31 0.35 0.35 0.44 0.46 0.52 0.54 0.58 0.61 0.50 0.55 0.55 0.54 0.54 0.52 0.51 0.52 0.47 0.47 0.40 0.43 0.41 0.43 0.48 0.46 0.48 0.52 0.55 0.55 0.55
0.59 0.55 0.66 0.59 0.59 0.53 0.50 0.47 0.56 0.59 0.62 0.54 0.44 0.48 0.40 0.34 0.35 0.34 0.42 0.48 0.47 0.57 0.54 0.60 0.49 0.52 0.46 0.50 0.51 0.48 0.53 0.52 0.50 0.51 0.48 0.48 0.46 0.54 0.52 0.56 0.56 0.55 0.54 0.55 0.50
0.77 0.75 0.65 0.58 0.57 0.51 0.47 0.51 0.60 0.65 0.67 0.68 0.59 0.51 0.46 0.44 0.48 0.45 0.52 0.50 0.61 0.55 0.53 0.52 0.50 0.46 0.36 0.43 0.42 0.37 0.44 0.47 0.49 0.52 0.50 0.42 0.51 0.57 0.53 0.54 0.57 0.56 0.52 0.47 0.48
Wind_Speed
17 16 16 16 17 18 18 18 19 19 20 21 24 26 27 28 28 27 27 25 23 24 24 25 24 25 27 28 27 24 25 27 26 24 22 18 16 17 14 17 19 18 18 16 14
17 17 17 17 18 18 18 18 19 19 20 22 22 23 25 28 30 32 29 27 26 26 24 24 25 24 27 28 27 29 27 29 26 24 23 21 18 18 17 17 18 18 19 19 17
18 18 18 18 18 18 18 18 19 20 21 22 23 24 24 24 26 29 31 31 30 27 26 25 25 25 27 29 30 31 33 27 29 28 26 24 22 18 19 18 19 19 19 18 17
20 19 19 18 18 18 19 19 20 21 21 21 22 22 23 23 22 19 20 22 28 29 28 26 26 27 26 30 31 32 34 31 30 29 24 25 24 24 22 20 19 21 21 23 21
21 21 20 19 19 19 19 19 19 20 20 21 21 21 21 24 26 22 21 19 20 25 28 27 27 27 29 26 30 34 32 33 31 31 31 26 26 26 25 22 22 22 23 23 23
22 22 22 21 20 19 19 19 20 20 20 21 21 22 23 26 25 28 26 24 21 21 25 28 27 28 29 31 31 28 35 34 32 32 32 31 28 26 24 22 23 22 22 22 21
24 23 23 22 21 20 20 19 19 20 21 21 22 23 26 25 22 24 29 28 27 25 23 25 31 29 25 30 30 33 32 32 36 34 32 30 32 30 24 24 25 24 22 19 18
25 25 24 23 23 22 21 20 20 20 20 21 21 23 26 25 29 26 26 27 30 31 30 28 26 31 31 26 28 29 31 32 35 32 35 31 31 26 24 25 25 21 18 16 16
27 26 25 24 24 23 22 21 21 22 22 21 21 22 26 22 28 29 29 26 25 26 27 30 29 28 29 29 27 31 32 37 33 35 31 34 32 27 27 24 21 21 19 17 14
28 27 26 25 24 24 23 22 23 24 23 21 23 21 25 24 23 26 28 29 28 26 26 27 27 29 30 31 34 31 34 33 34 34 34 34 31 27 25 23 23 21 20 18 16
29 27 26 25 24 23 22 22 23 22 23 23 21 21 20 23 21 23 24 26 28 29 28 27 28 34 36 36 34 31 33 32 34 33 35 34 33 29 27 26 25 21 20 18 16
29 27 26 24 23 23 22 21 22 22 26 28 29 29 29 23 24 25 24 25 26 29 28 28 36 37 31 34 35 36 33 32 29 32 33 32 32 31 28 29 27 24 22 19 17
29 27 26 24 22 22 22 23 22 24 27 26 29 31 27 28 29 26 27 27 27 29 30 32 35 32 34 34 35 37 37 32 29 29 27 27 30 29 28 29 26 26 24 22 19
28 27 25 22 21 21 21 21 22 21 24 24 23 23 26 24 27 28 27 28 28 30 29 31 34 35 35 39 37 39 38 36 29 28 28 27 22 29 30 31 27 25 24 23 20
28 27 25 23 18 18 17 16 16 16 19 14 16 18 19 22 21 24 31 31 30 27 24 26 26 32 37 38 40 39 35 38 37 23 23 23 22 25 23 29 26 25 25 24 21
29 27 25 23 21 17 16 15 15 15 19 16 16 17 17 19 21 22 24 27 27 27 26 27 23 27 30 33 37 38 35 33 33 28 24 24 21 19 22 23 23 23 23 23 21
28 27 26 22 19 17 15 13 14 16 15 16 17 17 19 20 21 20 21 26 21 18 23 20 26 25 21 25 35 37 34 28 22 22 20 30 20 16 14 19 23 22 22 22 21
27 26 26 23 18 16 14 14 17 17 16 16 17 18 19 17 16 17 15 22 25 20 11 17 17 24 27 28 33 42 41 20 20 22 21 25 21 17 21 15 16 19 20 21 20
27 25 24 24 20 17 14 15 16 15 15 16 15 16 15 13 12 16 19 17 20 24 16 10 14 15 24 30 35 36 33 26 13 18 18 19 16 15 17 16 17 19 20 20 20
26 24 22 23 21 17 16 18 16 15 14 15 14 12 10 7 10 14 17 14 21 21 19 11 7 13 23 25 31 31 27 22 15 18 15 17 20 16 19 17 17 19 20 19 19
24 22 21 23 20 18 17 16 16 16 13 12 14 11 10 5 10 13 13 14 13 17 16 13 11 11 20 27 30 23 25 24 12 14 14 14 12 18 17 17 17 18 19 20 20
24 20 21 22 18 16 16 14 12 12 13 13 11 11 6 8 11 12 13 9 14 16 13 14 9 14 18 20 26 25 23 22 17 10 9 11 12 12 12 12 14 17 19 19 19
23 19 21 20 16 16 15 13 13 12 10 8 7 8 7 6 9 14 13 9 15 15 14 15 11 13 9 20 21 20 23 19 12 11 12 8 12 12 11 11 11 13 15 17 17
23 19 18 20 16 15 15 13 12 13 13 11 8 9 9 9 12 9 12 11 16 15 14 11 11 8 9 14 22 22 22 19 17 11 10 8 12 12 12 12 11 11 12 14 15
23 19 18 15 16 17 12 11 10 8 10 10 6 12 11 10 12 11 12 12 12 15 14 9 4 6 6 19 22 19 18 19 21 18 12 12 12 14 14 14 13 12 12 13 14
22 19 16 14 16 17 17 14 14 10 9 11 12 8 14 14 13 14 14 13 12 13 16 11 3 1 11 10 15 18 19 20 19 18 17 14 12 14 16 14 13 14 14 15 16
23 19 16 13 14 14 13 14 12 11 13 19 14 13 10 16 12 16 14 17 11 13 15 11 6 3 5 7 8 8 16 20 18 18 18 19 15 11 12 14 15 14 14 15 15
Wind_Direction
275 275 278 283 285 286 285 284 283 281 275 270 263 260 257 257 258 256 255 255 258 261 262 258 256 251 247 244 243 244 242 240 239 244 250 245 246 249 246 248 245 244 245 246 246
274 274 277 282 285 286 286 285 284 283 278 272 267 263 261 260 258 255 254 256 258 259 261 258 254 251 245 241 240 239 241 241 241 243 249 250 243 246 254 254 248 246 246 246 247
272 273 277 282 284 286 286 286 285 285 280 274 269 265 263 262 262 258 253 255 256 257 258 256 254 253 249 240 237 238 242 245 241 244 247 246 251 253 252 252 247 244 249 249 255
272 272 274 279 281 285 287 287 286 286 282 276 271 267 261 256 256 257 259 258 254 252 252 252 250 247 247 243 238 241 241 240 245 245 244 244 248 252 252 253 251 252 253 252 257
271 271 272 275 279 284 287 288 288 286 284 278 271 267 260 254 254 257 259 262 259 250 246 247 246 246 245 246 241 242 243 242 241 242 245 244 243 249 251 252 254 256 252 252 253
270 270 270 272 276 281 286 287 288 286 285 280 271 266 262 258 261 254 257 257 259 256 247 246 247 247 251 246 245 246 243 245 243 242 240 244 244 246 248 249 249 253 253 254 252
268 269 268 269 272 278 283 285 289 286 285 282 274 265 261 260 263 258 255 255 255 256 256 247 246 249 247 248 249 243 246 241 239 239 238 237 242 242 249 249 248 250 256 247 247
265 267 268 267 270 274 279 281 286 289 287 285 277 268 264 264 259 260 259 258 256 256 255 253 254 246 247 250 248 240 237 241 236 236 235 234 241 242 246 244 240 242 246 244 246
263 264 266 267 268 271 275 278 283 286 288 283 279 271 272 268 258 257 255 256 255 256 253 249 248 246 244 241 243 235 236 234 236 232 233 231 240 240 243 242 233 241 243 238 242
260 261 262 266 266 270 272 276 282 285 282 279 277 280 271 268 266 260 254 252 255 256 253 246 244 241 238 232 233 232 232 235 231 230 234 234 234 235 241 233 235 239 242 232 237
257 258 259 263 264 267 270 279 284 282 271 270 277 271 280 276 269 260 253 251 252 252 248 242 239 237 233 232 235 237 237 235 236 228 232 233 233 230 234 238 237 236 241 230 234
254 254 256 259 261 265 267 276 280 284 284 268 270 269 268 278 267 259 252 248 245 246 243 242 240 239 237 236 235 233 236 238 236 233 228 233 231 233 233 237 233 233 234 229 228
250 250 252 255 259 263 266 273 281 286 284 279 270 271 270 263 264 259 247 245 246 244 240 241 246 239 238 234 233 232 230 229 235 228 232 230 234 231 233 233 230 232 232 224 224
246 245 247 249 259 262 266 276 278 285 286 283 283 282 264 266 268 253 250 244 249 244 242 248 244 241 236 235 230 230 228 226 232 232 219 219 233 227 232 230 229 226 229 218 221
241 241 241 241 254 260 270 275 280 285 288 293 288 288 283 259 273 263 246 246 242 240 239 246 241 237 235 235 230 228 225 219 227 227 217 227 229 229 232 220 221 224 226 217 220
236 236 235 241 251 261 263 271 280 283 281 286 292 286 280 269 269 273 239 233 239 242 242 245 245 237 229 228 223 220 220 224 218 217 223 209 215 224 221 214 215 219 213 212 216
232 233 231 237 248 247 258 270 280 274 292 290 292 288 276 277 267 258 232 223 227 232 241 238 237 231 233 227 209 207 200 208 217 206 217 207 215 221 216 209 212 210 209 211 215
228 230 227 235 235 238 252 271 272 280 279 296 294 287 286 281 267 231 228 224 225 227 225 227 230 219 211 205 195 194 196 193 201 209 198 193 215 214 212 209 202 205 207 211 215
222 223 222 228 228 236 252 267 278 285 287 286 293 292 291 275 260 219 223 226 213 208 211 221 233 211 203 199 191 189 201 215 212 190 191 204 204 208 207 212 209 207 205 208 211
216 217 225 222 222 234 257 267 274 280 286 288 287 283 281 257 221 212 211 206 215 211 209 219 234 204 190 188 193 196 204 198 197 190 189 201 206 210 205 208 210 206 206 208 209
212 216 220 215 221 237 259 268 275 273 277 286 289 285 275 213 203 192 193 216 205 201 195 205 212 191 183 185 183 193 201 201 176 193 186 185 203 199 201 202 207 208 207 208 211
207 215 210 208 227 243 257 262 272 281 265 285 282 282 231 186 185 184 209 204 178 171 181 179 177 185 195 197 198 190 189 194 198 183 189 182 197 186 189 195 204 211 208 210 214
204 212 208 213 231 238 255 258 260 283 282 272 264 236 202 190 186 196 207 196 164 167 163 160 183 176 198 190 198 195 189 189 199 196 194 188 194 188 190 193 204 204 206 211 216
203 206 213 220 237 242 244 254 262 267 263 248 250 231 204 208 188 178 198 182 177 174 172 173 176 199 208 167 170 190 194 204 200 201 201 203 189 193 195 196 201 204 207 211 217
205 211 212 216 229 237 239 252 257 273 241 216 230 225 197 192 192 197 200 184 181 183 182 172 201 181 184 164 181 185 191 206 207 209 214 217 205 207 209 208 213 219 219 220 225
204 210 212 225 227 232 240 248 255 264 264 226 221 213 205 196 194 194 181 197 183 190 193 201 209 2 123 142 173 189 198 206 214 214 222 231 234 217 220 217 221 227 231 235 235
205 212 218 218 225 233 242 243 251 265 263 232 219 213 217 197 202 204 199 199 190 190 194 192 195 196 154 164 175 213 211 209 218 221 222 224 225 222 224 223 228 233 238 240 240